Regional Weather Roundup
Issued by NWS

Home | Current Version | Previous Version | Text Only | Print | Product List | Glossary Off
Versions: 1 2 3 4 5 6 7 8 9 10 11 12 13 14 15 16 17 18 19 20 21 22 23 24 25 26 27 28 29 30 31 32 33 34 35 36 37 38 39 40 41 42 43 44 45 46 47 48 49 50

000
ASUS43 KDTX 032310
RWRMI
MICHIGAN HOURLY REGIONAL WEATHER ROUNDUP
NATIONAL WEATHER SERVICE DETROIT/PONTIAC MI
700 PM EDT MON AUG 03 2015

NOTE: "FAIR" INDICATES FEW OR NO CLOUDS BELOW 12,000 FEET WITH NO
SIGNIFICANT WEATHER AND/OR OBSTRUCTION TO VISIBILITY.

MIZ047>049-052>055-059>063-066>070-074>076-081>083-040000-
SOUTHEAST LOWER MICHIGAN

CITY           SKY/WX    TMP DP  RH WIND       PRES   REMARKS
ADRIAN         SUNNY     77  54  44 NW7       29.82R
ALMA           CLOUDY    74  51  44 W8        29.81R
ANN ARBOR      MOSUNNY   77  53  43 W16G22    29.80R
BAD AXE        CLOUDY    71  55  55 NW7       29.78S
CARO           PTSUNNY   73  59  62 NW3       29.78R
DETROIT CITY   SUNNY     78  56  46 NW8G16    29.78R
DETROIT        MOSUNNY   80  57  45 W9        29.79R
FLINT          MOSUNNY   78  51  38 W17       29.79R
GROSSE ILE     SUNNY     81  55  41 W10G16    29.77R
HILLSDALE      SUNNY     75  49  39 W14G23    29.85R
HOWELL         MOSUNNY   76  47  36 W13G18    29.81R

CITY           SKY/WX    TMP DP  RH WIND       PRES   REMARKS
JACKSON        SUNNY     73  50  44 NW14G25   29.84R
LAMBERTVILLE   SUNNY     79  53  40 NW8G16    29.81S
LANSING        SUNNY     75  49  39 W13       29.83R
LAPEER         FAIR      75  54  47 NW6       29.79R
MASON          SUNNY     73  48  40 W10G18    29.82S
MONROE         SUNNY     79  55  44 W13G18    29.79R
MT. CLEMENS    MOSUNNY   76  57  50 NW12      29.77R
PONTIAC        MOSUNNY   74  55  51 W15       29.79R
PORT HURON     DRIZZLE   70  63  78 CALM      29.79R
TRI CITIES     CLOUDY    75  55  49 W7        29.79R
MIDLAND        CLOUDY    74  53  47 W5        29.78R
TROY           SUNNY     78  55  45 NW10      29.81R
SAGINAW HB     CLOUDY    73  54  49 W6        29.78R
$$
MIZ043>046-050>051-056>058-064>065-071>073-077>080-040000-
SOUTHWEST LOWER MICHIGAN

CITY           SKY/WX    TMP DP  RH WIND       PRES   REMARKS
BATTLE CREEK     N/A    N/A N/A N/A MISG      29.86R
BENTON HARBOR  SUNNY     75  53  46 N5        29.86S
BIG RAPIDS     CLOUDY    71  48  43 W6        29.82R
COLDWATER      SUNNY     74  47  38 W14G20    29.85S
FREMONT        FAIR      74  45  35 NW13      29.83R
HOLLAND        SUNNY     75  53  46 W7        29.86R
GRAND RAPIDS   MOSUNNY   75  48  38 W17       29.83S
IONIA          FAIR      75  47  38 NW14G20   29.82S
KALAMAZOO      SUNNY     75  49  39 NW15      29.86R
LUDINGTON      CLOUDY    71  57  60 SW5       29.82S
MARSHALL       PTSUNNY   74  49  41 W15       29.85R
MOUNT PLEASANT CLOUDY    75  52  43 W7        29.79S
MUSKEGON       MOSUNNY   75  52  44 W8        29.84R
SOUTH HAVEN    SUNNY     74  51  43 W6        29.85S
$$
MIZ016>042-040000-
NORTHERN LOWER MICHIGAN

CITY           SKY/WX    TMP DP  RH WIND       PRES   REMARKS
ALPENA         CLOUDY    70  52  52 NW12      29.77R
BEAVER ISLAND  PTSUNNY   65  58  79 CALM      29.79R HAZE
BELLAIRE       CLOUDY    70  51  52 W3        29.78R
CADILLAC       MOSUNNY   71  50  47 W10       29.82R
CHARLEVOIX     CLOUDY    62  60  93 W6        29.82R
FRANKFORT      CLOUDY    69  56  65 SW3       29.80S
GAYLORD        MOSUNNY   69  50  50 W13       29.79S
GRAYLING       MOSUNNY   71  49  45 W5        29.80S
HARBOR SPRINGS CLOUDY    62  58  88 CALM      29.79R
HOUGHTON LAKE  CLOUDY    72  50  45 NW9       29.80R
MANISTEE       PTSUNNY   70  52  52 SW6       29.81S
OSCODA         CLOUDY    75  49  40 W12G17    29.76R
PELLSTON       CLOUDY    65  57  75 W6        29.78S
ROGERS CITY    PTSUNNY   66  57  73 W6        29.78S
TRAVERSE CITY  PTSUNNY   73  51  46 W15       29.77R
$$
MIZ007>008-015-040000-
EASTERN UPPER MICHIGAN

CITY           SKY/WX    TMP DP  RH WIND       PRES   REMARKS
KINROSS        CLOUDY    59  57  94 NW7       29.77R
MACKINAC ISLAN CLOUDY    64  56  75 W8        29.77S
NEWBERRY       CLOUDY    65  51  60 NW5       29.77R
S. S. MARIE    PTSUNNY   63  53  70 NW12G20   29.76R
MUNISING         N/A     67  56  67 N10       29.78R
$$
MIZ004>006-011>014-085-040000-
CENTRAL UPPER MICHIGAN

CITY           SKY/WX    TMP DP  RH WIND       PRES   REMARKS
MANISTIQUE     PTSUNNY   66  54  63 NW3       29.78R
ESCANABA       CLOUDY    72  54  53 NW7       29.77R
MENOMINEE      SUNNY     73  52  46 N14       29.78S
SAWYER-GWINN   PTSUNNY   68  50  52 NW12      29.79R
$$
MIZ001>003-009>011-084-040000-
WESTERN UPPER MICHIGAN

CITY           SKY/WX    TMP DP  RH WIND       PRES   REMARKS
IRON MOUNTAIN  MOSUNNY   70  50  49 NW14      29.80R
HOUGHTON       CLOUDY    66  51  58 W15       29.78S
COPPER HARBOR    N/A     65  51  60 NW8       29.76S
IRONWOOD       PTSUNNY   66  54  63 W14       29.82R
$$

ABBREVIATIONS USED IN REMARKS
   TC - TEMPERATURE IN CELSIUS
  WCI - WIND CHILL INDEX
   HX - HEAT INDEX
  VSB - VISIBILITY



USA.gov is the U.S. government's official web portal to all federal, state and local government web resources and services.